Weather History for Bennington, VT

Change the Weather History Date:

Monday, December 9, 2013

  Actual Average Record
Temperature  
Mean Temperature 33 °F 30 °F  
Max Temperature 41 °F 38 °F 52 °F (2008)
Min Temperature 25 °F 23 °F -2 °F (2002)
Degree Days  
Heating Degree Days 32 35  
Month to date heating degree days 274 299  
Since 1 July heating degree days 1805 1912  
Cooling Degree Days 0 0  
Month to date cooling degree days 0 0  
Year to date cooling degree days 503 313  
Moisture  
Dew Point 26 °F    
Average Humidity 66    
Maximum Humidity 82    
Minimum Humidity 50    
Precipitation  
Precipitation 0.01 in 0.10 in 0.27 in (2001)
Month to date precipitation 0.31 0.87  
Year to date precipitation 42.21 38.78  
Sea Level Pressure  
Sea Level Pressure 30.05 in    
Wind  
Wind Speed 7 mph (SE)    
Max Wind Speed 22 mph    
Max Gust Speed 33 mph    
Visibility 9 miles    
Events Rain , Snow    
T = Trace of Precipitation, MM = Missing Value Source: NWS Daily Summary

Daily Weather History Graph

Daily Weather History Graph

Search for Another Location

Airport:

Trip Planner

Search our weather history database for the weather conditions in past years. The results will help you decide how hot, cold, wet, or windy it might be!

Date:

Astronomy

Dec. 09, 2013 Rise Set
Actual Time 7:12 AM EST 4:18 PM EST
Civil Twilight 6:40 AM EST 4:50 PM EST
Nautical Twilight 6:04 AM EST 5:26 PM EST
Astronomical Twilight 5:30 AM EST 6:00 PM EST
Moon 11:55 AM EST (12/9) No Moon Set
Length of Visible Light 10h 10m
Length of Day
9h 06m
Waxing Crescent, 51% of the Moon is Illuminated
Dec 9
Waxing Crescent
Dec 17
Full
Dec 25
Last Quarter
Jan 1
New
Jan 7
First Quarter

Hourly Weather History & Observations

Time (EST) Temp. Windchill Dew Point Humidity Pressure Visibility Wind Dir Wind Speed Gust Speed Precip Events Conditions
12:54 AM 27.0 °F 23.0 °F 14.0 °F 58% 30.40 in 10.0 mi East 3.5 mph - N/A   Overcast
1:54 AM 25.0 °F 19.3 °F 18.0 °F 75% 30.37 in 2.0 mi SE 4.6 mph - 0.00 in Snow Light Snow
2:10 AM 24.8 °F 20.5 °F 17.6 °F 74% 30.33 in 3.0 mi Variable 3.5 mph - 0.00 in Snow Light Snow
2:54 AM 26.1 °F 16.8 °F 17.1 °F 69% 30.35 in 8.0 mi ESE 9.2 mph - 0.00 in Snow Light Snow
3:54 AM 26.1 °F 18.4 °F 16.0 °F 66% 30.29 in 10.0 mi East 6.9 mph - 0.00 in   Overcast
4:54 AM 27.0 °F 15.2 °F 16.0 °F 63% 30.25 in 10.0 mi SE 15.0 mph 23.0 mph N/A   Overcast
5:54 AM 27.0 °F 16.7 °F 17.1 °F 66% 30.22 in 10.0 mi ESE 11.5 mph 21.9 mph 0.01 in   Overcast
6:54 AM 30.0 °F 22.4 °F 19.9 °F 66% 30.18 in 10.0 mi ESE 8.1 mph 18.4 mph N/A   Overcast
7:03 AM 30.2 °F 22.6 °F 19.4 °F 64% 30.15 in 10.0 mi ESE 8.1 mph 21.9 mph N/A   Overcast
7:54 AM 30.9 °F 22.8 °F 21.9 °F 69% 30.15 in 10.0 mi ESE 9.2 mph 21.9 mph N/A   Overcast
8:54 AM 33.1 °F 21.5 °F 24.1 °F 70% 30.11 in 10.0 mi SE 19.6 mph 29.9 mph 0.00 in   Overcast
9:11 AM 33.8 °F 27.0 °F 24.8 °F 70% 30.07 in 6.0 mi East 8.1 mph 17.3 mph 0.00 in Rain Light Freezing Rain
9:33 AM 33.8 °F 27.7 °F 24.8 °F 70% 30.07 in 10.0 mi Variable 6.9 mph 17.3 mph 0.00 in   Overcast
9:54 AM 34.0 °F 31.0 °F 25.0 °F 70% 30.10 in 10.0 mi Variable 3.5 mph 20.7 mph 0.00 in   Overcast
10:13 AM 33.8 °F 29.6 °F 24.8 °F 70% 30.06 in 10.0 mi Variable 4.6 mph - N/A   Overcast
10:54 AM 36.0 °F 27.5 °F 26.1 °F 67% 30.05 in 10.0 mi SE 12.7 mph 21.9 mph 0.00 in   Overcast
11:54 AM 39.0 °F 32.8 °F 28.0 °F 65% 29.99 in 10.0 mi SSE 9.2 mph 28.8 mph N/A   Overcast
12:54 PM 37.0 °F 29.8 °F 28.0 °F 70% 29.97 in 10.0 mi SSE 10.4 mph 18.4 mph N/A   Overcast
1:54 PM 39.0 °F 33.4 °F 28.9 °F 67% 29.91 in 10.0 mi NNE 8.1 mph - N/A   Overcast
2:54 PM 39.0 °F 35.7 °F 30.0 °F 70% 29.91 in 10.0 mi NW 4.6 mph - N/A   Overcast
3:33 PM 39.2 °F - 32.0 °F 75% 29.89 in 10.0 mi Calm Calm - N/A   Overcast
3:54 PM 39.9 °F 35.1 °F 32.0 °F 73% 29.90 in 10.0 mi SW 6.9 mph - N/A   Overcast
4:54 PM 39.9 °F - 33.1 °F 77% 29.89 in 10.0 mi Calm Calm - N/A   Overcast
5:54 PM 39.9 °F 37.8 °F 33.1 °F 77% 29.91 in 10.0 mi SSW 3.5 mph - N/A   Overcast
6:24 PM 35.6 °F - 30.2 °F 81% 29.88 in 10.0 mi Calm Calm - N/A   Overcast
6:35 PM 35.6 °F - 30.2 °F 81% 29.87 in 10.0 mi Calm Calm - N/A   Mostly Cloudy
6:54 PM 33.1 °F - 28.9 °F 85% 29.90 in 10.0 mi Calm Calm - N/A   Clear
7:54 PM 33.1 °F 30.0 °F 28.9 °F 85% 29.92 in 10.0 mi West 3.5 mph - N/A   Mostly Cloudy
8:21 PM 33.8 °F - 30.2 °F 87% 29.90 in 9.0 mi Calm Calm - N/A   Overcast
8:54 PM 35.1 °F - 30.9 °F 85% 29.93 in 10.0 mi Calm Calm - N/A   Overcast
9:54 PM 37.0 °F 34.5 °F 30.0 °F 76% 29.94 in 10.0 mi Variable 3.5 mph - N/A   Overcast
10:54 PM 35.1 °F 31.0 °F 28.9 °F 78% 29.94 in 10.0 mi West 4.6 mph - N/A   Overcast
11:04 PM 35.6 °F 29.9 °F 28.4 °F 75% 29.92 in 10.0 mi West 6.9 mph - N/A   Overcast
11:47 PM 35.6 °F 32.8 °F 28.4 °F 75% 29.92 in 10.0 mi WNW 3.5 mph - N/A   Overcast
11:54 PM 35.1 °F - 28.0 °F 76% 29.94 in 10.0 mi Calm Calm - N/A   Overcast